Location: *
(46.1866°S, 178.5290°W)
Time: 18:38:26
(UTC+00:00)

Cosmos 2237 Rocket - Pass Details

Date: 19 May 2021
Orbit: 836 x 848 km, 71.0° (Epoch: 17 June)

Event Time Altitude Azimuth Distance (km) Brightness Sun altitude
Rises 05:37:11 0° 330° (NNW) 3,397 6.1 -11.9°
Reaches altitude 10° 05:39:37 10° 328° (NNW) 2,471 5.4 -12.3°
Maximum altitude 05:45:18 74° 242° (WSW) 892 2.4 -13.3°
Drops below altitude 10° 05:51:05 10° 156° (SSE) 2,507 4.3 -14.2°
Enters shadow 05:52:12 - 155° (SSE) 2,932 4.6 -14.4°
